SIRION PATHFINDER-2

Last updated on Tue Sep 16 2025 00:03:48 GMT+0000 (Coordinated Universal Time)

1 43759U 18099B 25258.10629593 .00004350 00000+0 26533-3 0 9995 2 43759 97.4680 308.7001 0010114 161.9649 198.1942 15.10811376371037
UTC large
Height (km)
Speed (km/s)
/
Latitude / Longitude
Inclination (degrees)
Orbital Period (minutes)
Azimuth
Elevation
Range (km)
Doppler Factor

Next 0 passes for location: London (51.5072 / 0.1276)

Sorry there are no passes over London.